Location: Melque
(41.0517°N, 4.4694°W)
Time: 11:57:15
(UTC+00:00)

SKYMED 2 - Pass Details

Date: 14 March 2026
Orbit: 622 x 624 km, 97.9° (Epoch: 14 April)

Event Time Altitude Azimuth Distance (km) Brightness Sun altitude
Rises 05:51:26 0° 179° (S) 2,889 7.0 -8.4°
Reaches altitude 10° 05:53:40 10° 184° (S) 1,988 6.1 -8.0°
Maximum altitude 05:57:52 50° 260° (W) 793 3.7 -7.2°
Drops below altitude 10° 06:02:07 10° 337° (NNW) 2,002 6.0 -6.4°
Sets 06:04:22 0° 342° (NNW) 2,913 6.8 -5.9°
